Regional Weather Roundup
Issued by NWS

Home | Current Version | Previous Version | Text Only | Print | Product List | Glossary Off
Versions: 1 2 3 4 5 6 7 8 9 10 11 12 13 14 15 16 17 18 19 20 21 22 23 24 25 26 27 28 29 30 31 32 33 34 35 36 37 38 39 40 41 42 43 44 45 46 47 48 49 50

000
ASUS43 KBIS 181320
RWRND

NORTH DAKOTA REGIONAL WEATHER ROUNDUP
NATIONAL WEATHER SERVICE BISMARCK ND
700 AM CST THU DEC 18 2014

NOTE: "FAIR" INDICATES FEW OR NO CLOUDS BELOW 12,000 FEET WITH NO
SIGNIFICANT WEATHER AND/OR OBSTRUCTIONS TO VISIBILITY.


NDZ001>003-009>011-017-181400-
NORTHWEST NORTH DAKOTA

CITY           SKY/WX    TMP DP  RH WIND       PRES   REMARKS
WILLISTON      CLOUDY    21  17  84 SE3       30.00S
MINOT          MOCLDY    14   9  80 SE7       30.06S WCI   4
MINOT AFB      PTCLDY    11  11  98 SE8       30.06S WCI   0
$$

NDZ018>021-031>035-040>046-181400-
SOUTHWEST NORTH DAKOTA

CITY           SKY/WX    TMP DP  RH WIND       PRES   REMARKS
BISMARCK       CLOUDY    16  15  96 SE10      30.10S WCI   4
DICKINSON      CLOUDY    21  17  84 S10       29.95S WCI  10
GARRISON         N/A     18  15  88 S9        30.04F WCI   7
HETTINGER ARPT CLOUDY    21  19  92 S6        29.98S WCI  13
$$

NDZ004>008-012>016-024-026-027-054-181400-
NORTHEAST NORTH DAKOTA

CITY           SKY/WX    TMP DP  RH WIND       PRES   REMARKS
GRAND FORKS    MOCLDY     4   1  88 S3        30.25F
GRND FRKS AFB  PTCLDY     5   4  98 SE1       30.24F
DEVILS LAKE    CLOUDY    12   1  62 SE9       30.13F WCI   0
$$

NDZ022-023-025-028>030-036>039-047>053-181400-
SOUTHEAST NORTH DAKOTA

CITY           SKY/WX    TMP DP  RH WIND       PRES   REMARKS
FARGO          MOCLDY     9   5  84 SE7       30.25F WCI  -2
JAMESTOWN      CLOUDY    15  11  83 SE8       30.15S WCI   4
$$




USA.gov is the U.S. government's official web portal to all federal, state and local government web resources and services.